Location: Newark
(37.9800°N, 91.3000°W)
Time: 07:49:16
(UTC+00:00)

NOAA 19 - Visible Passes

Search period start: 06 December 2019 00:00
Search period end: 16 December 2019 00:00
Orbit: 842 x 860 km, 99.2° (Epoch: 05 December)

Date Brightness Start Highest point End Pass type
(mag) Time Alt. Az. Time Alt. Az. Time Alt. Az.
06 Dec 7.9 10:38:46 10° NE 10:42:35 19° E 10:46:22 10° SE visible
06 Dec 5.4 12:18:08 10° N 12:23:31 53° WNW 12:28:51 10° SSW visible
06 Dec 7.2 23:43:19 10° SSW 23:48:14 33° W 23:53:13 10° NW visible
07 Dec 8.2 10:27:52 10° ENE 10:30:46 14° E 10:33:39 10° ESE visible
07 Dec 5.2 12:06:22 10° N 12:11:53 68° WNW 12:17:20 10° SSW visible
07 Dec 6.7 23:31:17 10° S 23:36:30 42° W 23:41:45 10° NNW visible
08 Dec 8.4 10:17:51 10° ENE 10:18:56 11° E 10:20:02 10° E visible
08 Dec 5.2 11:54:39 10° NNE 12:00:13 86° WNW 12:05:44 10° SSW visible
08 Dec 6.2 23:19:22 10° S 23:24:46 54° W 23:30:13 10° NNW visible
09 Dec 5.4 11:42:59 10° NNE 11:48:33 75° ESE 11:54:02 10° S visible
09 Dec 5.7 23:07:34 10° S 23:13:04 70° WSW 23:18:38 10° NNW visible
10 Dec 5.9 11:31:23 10° NNE 11:36:51 58° ESE 11:42:15 10° S visible
11 Dec 6.4 11:19:50 10° NNE 11:25:07 45° E 11:30:21 10° S visible
12 Dec 8.3 00:28:18 10° WSW 00:30:52 13° W 00:33:28 10° WNW visible
12 Dec 6.8 11:08:21 10° NNE 11:13:23 35° E 11:18:21 10° SSE visible
13 Dec 8.1 00:15:27 10° SW 00:19:03 18° W 00:22:41 10° NW visible
13 Dec 7.3 10:56:59 10° NE 11:01:37 27° E 11:06:13 10° SSE visible
13 Dec 5.7 12:37:16 10° N 12:42:17 37° WNW 12:47:17 10° SW visible
14 Dec 7.8 00:02:59 10° SW 00:07:16 23° W 00:11:34 10° NW visible
14 Dec 7.7 10:45:43 10° NE 10:49:51 21° E 10:53:56 10° SE visible
14 Dec 5.5 12:25:25 10° N 12:30:41 47° WNW 12:35:55 10° SW visible
14 Dec 7.4 23:50:44 10° SSW 23:55:29 29° W 00:00:16 10° NW visible
15 Dec 8.0 10:34:39 10° NE 10:38:02 16° E 10:41:23 10° SE visible
15 Dec 5.2 12:13:37 10° N 12:19:04 60° WNW 12:24:27 10° SSW visible
15 Dec 6.9 23:38:39 10° SSW 23:43:44 37° W 23:48:52 10° NNW visible
